| time (UTC) | temp F | wind direction | speed MPH | gust MPH | rain 1hr in | rain 24hr in | rain mn in | humidity % | barometer mb |
| 20260831220304 | 60 | 204 | 6.0 | 8.0 | 0.28 | 1.89 | 0.00 | 88 | 1006.2 |
| 20260831220106 | 59 | 216 | 6.0 | 8.0 | 0.00 | 0.27 | 0.00 | 87 | 1006.1 |
| 20260831214804 | 60 | 160 | 3.0 | 3.0 | 0.00 | 1.89 | 0.28 | 88 | 1006.2 |
| 20260831214611 | 59 | 160 | 3.0 | 5.0 | 0.00 | 0.27 | 0.27 | 87 | 1006.1 |
| 20260831213305 | 60 | 160 | 3.0 | 5.0 | 0.00 | 1.89 | 0.28 | 88 | 1006.1 |
| 20260831213109 | 59 | 160 | 3.0 | 5.0 | 0.00 | 0.27 | 0.27 | 87 | 1005.9 |
| 20260831211804 | 60 | 160 | 3.0 | 5.0 | 0.00 | 1.89 | 0.28 | 88 | 1006.0 |
| 20260831211613 | 59 | 160 | 3.0 | 8.0 | 0.00 | 0.27 | 0.27 | 87 | 1006.0 |
| 20260831211303 | 60 | 160 | 5.0 | 7.0 | 0.00 | 1.89 | 0.28 | 88 | 1006.0 |
| 20260831210304 | 60 | 160 | 6.0 | 8.0 | 0.00 | 1.61 | 0.28 | 88 | 1006.0 |
| 20260831210104 | 59 | 160 | 6.0 | 8.0 | 0.00 | 0.27 | 0.27 | 87 | 1005.9 |
| 20260831204609 | 59 | 160 | 5.0 | 7.0 | 0.00 | 0.27 | 0.27 | 87 | 1006.0 |
| 20260831203804 | 60 | 160 | 5.0 | 7.0 | 0.00 | 1.34 | 0.28 | 88 | 1006.1 |
| 20260831203304 | 60 | 160 | 5.0 | 8.0 | 0.00 | 1.34 | 0.28 | 88 | 1006.0 |
| 20260831203116 | 59 | 160 | 5.0 | 8.0 | 0.00 | 0.27 | 0.27 | 87 | 1006.0 |
| 20260831201804 | 60 | 160 | 6.0 | 7.0 | 0.00 | 1.34 | 0.28 | 88 | 1006.1 |
| 20260831201607 | 59 | 160 | 4.0 | 6.0 | 0.00 | 0.27 | 0.27 | 87 | 1006.1 |
| 20260831201304 | 60 | 160 | 5.0 | 6.0 | 0.00 | 1.34 | 0.28 | 88 | 1006.1 |
| 20260831200804 | 60 | 160 | 5.0 | 6.0 | 0.00 | 1.34 | 0.28 | 88 | 1006.1 |
| 20260831200304 | 60 | 160 | 4.0 | 7.0 | 0.00 | 1.34 | 0.28 | 88 | 1006.1 |
| 20260831200126 | 59 | 160 | 4.0 | 7.0 | 0.00 | 0.27 | 0.27 | 87 | 1006.0 |
| 20260831194804 | 60 | 160 | 5.0 | 6.0 | 0.00 | 1.34 | 0.28 | 88 | 1006.1 |
| 20260831194644 | 60 | 160 | 5.0 | 6.0 | 0.00 | 0.27 | 0.27 | 87 | 1006.0 |
| 20260831194304 | 60 | 160 | 5.0 | 6.0 | 0.00 | 1.34 | 0.28 | 88 | 1006.1 |
| 20260831193804 | 60 | 160 | 3.0 | 5.0 | 0.00 | 1.34 | 0.28 | 88 | 1006.0 |
| 20260831193304 | 60 | 160 | 5.0 | 7.0 | 0.01 | 1.34 | 0.28 | 88 | 1006.0 |
| 20260831193106 | 60 | 160 | 4.0 | 7.0 | 0.01 | 0.27 | 0.27 | 87 | 1005.9 |
| 20260831191606 | 60 | 160 | 4.0 | 6.0 | 0.03 | 0.27 | 0.27 | 87 | 1005.8 |
| 20260831190110 | 60 | 160 | 6.0 | 8.0 | 0.03 | 0.27 | 0.27 | 87 | 1005.7 |
| 20260831184804 | 60 | 160 | 5.0 | 6.0 | 0.03 | 1.06 | 0.28 | 88 | 1005.7 |
| 20260831184607 | 60 | 160 | 4.0 | 7.0 | 0.03 | 0.27 | 0.27 | 87 | 1005.6 |
| 20260831184304 | 60 | 160 | 5.0 | 7.0 | 0.03 | 1.06 | 0.28 | 88 | 1005.6 |
| 20260831183804 | 60 | 160 | 5.0 | 6.0 | 0.03 | 1.06 | 0.28 | 88 | 1005.5 |
| 20260831183304 | 60 | 160 | 5.0 | 7.0 | 0.02 | 1.06 | 0.27 | 88 | 1005.6 |
| 20260831183113 | 60 | 160 | 4.0 | 7.0 | 0.01 | 0.25 | 0.25 | 87 | 1005.6 |
| 20260831181804 | 60 | 160 | 6.0 | 7.0 | 0.00 | 1.03 | 0.24 | 88 | 1005.4 |
| 20260831181611 | 60 | 160 | 5.0 | 7.0 | 0.00 | 0.24 | 0.24 | 87 | 1005.4 |
| 20260831180804 | 60 | 160 | 5.0 | 6.0 | 0.00 | 1.03 | 0.24 | 88 | 1005.5 |
| 20260831180304 | 60 | 160 | 5.0 | 7.0 | 0.00 | 1.03 | 0.24 | 88 | 1005.5 |
| 20260831180119 | 60 | 160 | 5.0 | 7.0 | 0.00 | 0.24 | 0.24 | 87 | 1005.4 |
| 20260831174803 | 60 | 160 | 6.0 | 8.0 | 0.00 | 1.03 | 0.24 | 87 | 1005.5 |
| 20260831174606 | 60 | 160 | 5.0 | 8.0 | 0.00 | 0.24 | 0.24 | 87 | 1005.5 |
| 20260831174304 | 60 | 179 | 5.0 | 7.0 | 0.00 | 1.03 | 0.24 | 87 | 1005.4 |
| 20260831173804 | 60 | 179 | 5.0 | 6.0 | 0.00 | 1.03 | 0.24 | 87 | 1005.4 |
| 20260831173304 | 60 | 179 | 6.0 | 7.0 | 0.00 | 1.03 | 0.24 | 87 | 1005.4 |
| 20260831173105 | 60 | 179 | 5.0 | 8.0 | 0.00 | 0.24 | 0.24 | 87 | 1005.3 |
| 20260831171604 | 60 | 179 | 5.0 | 10.0 | 0.00 | 0.24 | 0.24 | 87 | 1005.3 |
| 20260831170804 | 61 | 179 | 7.0 | 10.0 | 0.00 | 0.79 | 0.24 | 88 | 1005.4 |
| 20260831170107 | 60 | 170 | 6.0 | 9.0 | 0.00 | 0.24 | 0.24 | 87 | 1005.2 |
| 20260831164608 | 60 | 183 | 5.0 | 9.0 | 0.00 | 0.24 | 0.24 | 87 | 1005.3 |
| 20260831164303 | 61 | 179 | 6.0 | 9.0 | 0.00 | 0.95 | 0.24 | 88 | 1005.4 |
| 20260831163804 | 61 | 191 | 5.0 | 8.0 | 0.01 | 0.95 | 0.24 | 87 | 1005.3 |
| 20260831163304 | 61 | 191 | 7.0 | 10.0 | 0.02 | 1.12 | 0.24 | 87 | 1005.4 |
| 20260831163106 | 60 | 191 | 7.0 | 9.0 | 0.02 | 0.24 | 0.24 | 87 | 1005.3 |
| 20260831161804 | 61 | 187 | 7.0 | 10.0 | 0.05 | 1.12 | 0.24 | 87 | 1005.4 |
| 20260831161612 | 61 | 179 | 5.0 | 9.0 | 0.04 | 0.24 | 0.24 | 87 | 1005.4 |
| 20260831161304 | 61 | 179 | 6.0 | 7.0 | 0.06 | 1.28 | 0.24 | 87 | 1005.5 |
| 20260831160804 | 61 | 179 | 6.0 | 7.0 | 0.06 | 1.28 | 0.24 | 87 | 1005.4 |
| 20260831160304 | 61 | 179 | 5.0 | 8.0 | 0.08 | 1.28 | 0.24 | 87 | 1005.5 |
| 20260831160109 | 61 | 179 | 4.0 | 8.0 | 0.07 | 0.24 | 0.24 | 87 | 1005.5 |
| 20260831154633 | 61 | 164 | 6.0 | 9.0 | 0.11 | 0.31 | 0.24 | 87 | 1005.4 |
| 20260831153303 | 62 | 143 | 5.0 | 10.0 | 0.13 | 1.29 | 0.23 | 87 | 1005.6 |
| 20260831153111 | 61 | 143 | 7.0 | 10.0 | 0.11 | 0.29 | 0.22 | 87 | 1005.5 |
| 20260831151620 | 61 | 150 | 6.0 | 11.0 | 0.09 | 0.26 | 0.19 | 87 | 1005.5 |
| 20260831151304 | 62 | 152 | 6.0 | 10.0 | 0.09 | 0.90 | 0.19 | 87 | 1005.6 |
| 20260831150803 | 62 | 163 | 7.0 | 12.0 | 0.08 | 0.89 | 0.18 | 87 | 1005.5 |
| 20260831150304 | 62 | 153 | 9.0 | 12.0 | 0.06 | 0.87 | 0.17 | 87 | 1005.5 |
| 20260831150107 | 61 | 157 | 8.0 | 11.0 | 0.06 | 0.23 | 0.16 | 86 | 1005.4 |
| 20260831144804 | 62 | 160 | 9.0 | 13.0 | 0.04 | 0.72 | 0.14 | 87 | 1005.7 |
| 20260831144606 | 62 | 162 | 9.0 | 15.0 | 0.03 | 0.22 | 0.13 | 87 | 1005.6 |
| 20260831143804 | 62 | 155 | 9.0 | 15.0 | 0.00 | 0.68 | 0.10 | 87 | 1005.5 |
| 20260831143304 | 62 | 149 | 12.0 | 15.0 | 0.02 | 0.68 | 0.10 | 87 | 1005.5 |
| 20260831143104 | 62 | 156 | 11.0 | 15.0 | 0.01 | 0.18 | 0.10 | 86 | 1005.5 |
| 20260831141803 | 63 | 157 | 8.0 | 13.0 | 0.04 | 0.68 | 0.10 | 87 | 1005.6 |
| 20260831141605 | 62 | 161 | 6.0 | 10.0 | 0.03 | 0.18 | 0.10 | 86 | 1005.6 |
| 20260831140304 | 62 | 136 | 7.0 | 12.0 | 0.09 | 0.69 | 0.10 | 87 | 1005.6 |
| 20260831140106 | 61 | 137 | 7.0 | 12.0 | 0.09 | 0.18 | 0.10 | 86 | 1005.6 |
| 20260831134804 | 62 | 142 | 6.0 | 9.0 | 0.10 | 0.69 | 0.10 | 86 | 1005.8 |
| 20260831134610 | 61 | 140 | 6.0 | 12.0 | 0.10 | 0.23 | 0.10 | 86 | 1005.7 |
| 20260831134304 | 62 | 150 | 8.0 | 12.0 | 0.10 | 0.70 | 0.10 | 86 | 1005.8 |
| 20260831133120 | 61 | 168 | 8.0 | 14.0 | 0.08 | 0.22 | 0.08 | 85 | 1005.8 |
| 20260831131804 | 62 | 159 | 9.0 | 14.0 | 0.06 | 0.72 | 0.06 | 85 | 1006.0 |
| 20260831131615 | 62 | 177 | 10.0 | 14.0 | 0.06 | 0.19 | 0.06 | 85 | 1006.0 |
| 20260831131304 | 63 | 163 | 10.0 | 14.0 | 0.06 | 0.72 | 0.06 | 85 | 1006.0 |
| 20260831130804 | 63 | 163 | 8.0 | 13.0 | 0.03 | 0.69 | 0.03 | 85 | 1006.0 |
| 20260831130304 | 63 | 165 | 8.0 | 16.0 | 0.02 | 0.68 | 0.02 | 84 | 1006.0 |
| 20260831130114 | 62 | 175 | 10.0 | 18.0 | 0.00 | 0.14 | 0.00 | 83 | 1005.9 |
| 20260831124804 | 64 | 171 | 14.0 | 18.0 | 0.00 | 0.66 | 0.00 | 82 | 1006.1 |
| 20260831124610 | 64 | 183 | 11.0 | 21.0 | 0.00 | 0.15 | 0.00 | 81 | 1006.0 |
| 20260831123804 | 65 | 171 | 11.0 | 17.0 | 0.00 | 0.66 | 0.00 | 79 | 1006.1 |
| 20260831123108 | 65 | 162 | 12.0 | 18.0 | 0.00 | 0.15 | 0.00 | 78 | 1006.0 |
| 20260831121804 | 66 | 202 | 14.0 | 20.0 | 0.00 | 0.68 | 0.00 | 76 | 1005.9 |
| 20260831121609 | 66 | 187 | 12.0 | 20.0 | 0.00 | 0.15 | 0.00 | 76 | 1005.9 |
| 20260831121304 | 67 | 182 | 11.0 | 17.0 | 0.00 | 0.69 | 0.00 | 76 | 1006.0 |
| 20260831120304 | 67 | 205 | 14.0 | 21.0 | 0.00 | 0.69 | 0.00 | 75 | 1006.0 |
| 20260831120114 | 67 | 190 | 15.0 | 21.0 | 0.00 | 0.15 | 0.00 | 75 | 1005.9 |
| 20260831114606 | 67 | 223 | 12.0 | 17.0 | 0.00 | 0.16 | 0.00 | 73 | 1005.9 |
| 20260831114304 | 67 | 215 | 12.0 | 15.0 | 0.00 | 0.69 | 0.00 | 74 | 1005.9 |
| 20260831113803 | 67 | 215 | 9.0 | 12.0 | 0.00 | 0.69 | 0.00 | 74 | 1005.9 |
| 20260831113105 | 67 | 214 | 13.0 | 17.0 | 0.00 | 0.16 | 0.00 | 75 | 1005.7 |
| 20260831111804 | 67 | 208 | 9.0 | 14.0 | 0.00 | 0.69 | 0.00 | 78 | 1006.0 |
| 20260831111606 | 66 | 221 | 10.0 | 14.0 | 0.00 | 0.16 | 0.00 | 78 | 1005.9 |
| 20260831111304 | 66 | 217 | 11.0 | 14.0 | 0.00 | 0.69 | 0.00 | 78 | 1006.1 |
| 20260831110304 | 66 | 226 | 12.0 | 16.0 | 0.00 | 0.69 | 0.00 | 80 | 1006.1 |
| 20260831110113 | 65 | 216 | 11.0 | 16.0 | 0.00 | 0.16 | 0.00 | 79 | 1006.0 |
| 20260831104612 | 65 | 262 | 11.0 | 16.0 | 0.00 | 0.16 | 0.00 | 80 | 1006.2 |
| 20260831104304 | 66 | 239 | 12.0 | 16.0 | 0.00 | 0.69 | 0.00 | 81 | 1006.1 |
| 20260831103804 | 66 | 228 | 9.0 | 13.0 | 0.00 | 0.69 | 0.00 | 81 | 1006.2 |
| 20260831103304 | 65 | 246 | 11.0 | 15.0 | 0.00 | 0.69 | 0.00 | 81 | 1006.3 |
| 20260831103105 | 65 | 240 | 7.0 | 15.0 | 0.00 | 0.16 | 0.00 | 81 | 1006.3 |
| 20260831101607 | 64 | 232 | 7.0 | 13.0 | 0.00 | 0.16 | 0.00 | 80 | 1006.4 |
| 20260831101304 | 65 | 232 | 9.0 | 13.0 | 0.00 | 0.69 | 0.00 | 81 | 1006.4 |
| 20260831100804 | 65 | 246 | 9.0 | 13.0 | 0.00 | 0.69 | 0.00 | 80 | 1006.3 |
| 20260831100304 | 65 | 233 | 6.0 | 13.0 | 0.00 | 0.69 | 0.00 | 81 | 1006.3 |
| 20260831100127 | 64 | 236 | 7.0 | 13.0 | 0.00 | 0.16 | 0.00 | 80 | 1006.3 |
| 20260831094804 | 65 | 249 | 10.0 | 14.0 | 0.00 | 0.69 | 0.00 | 80 | 1006.4 |
| 20260831094605 | 65 | 248 | 9.0 | 15.0 | 0.00 | 0.16 | 0.00 | 79 | 1006.2 |
| 20260831094304 | 65 | 244 | 9.0 | 15.0 | 0.00 | 0.69 | 0.00 | 80 | 1006.4 |
| 20260831093804 | 65 | 250 | 10.0 | 14.0 | 0.00 | 0.69 | 0.00 | 80 | 1006.3 |
| 20260831093304 | 64 | 233 | 9.0 | 15.0 | 0.00 | 0.69 | 0.00 | 80 | 1006.4 |
| 20260831093108 | 64 | 208 | 11.0 | 15.0 | 0.00 | 0.16 | 0.00 | 79 | 1006.2 |
| 20260831091804 | 64 | 252 | 10.0 | 14.0 | 0.00 | 0.69 | 0.00 | 80 | 1006.3 |
| 20260831091604 | 64 | 260 | 7.0 | 14.0 | 0.00 | 0.16 | 0.00 | 80 | 1006.2 |
| 20260831091304 | 64 | 231 | 7.0 | 12.0 | 0.00 | 0.69 | 0.00 | 80 | 1006.3 |
| 20260831090804 | 64 | 245 | 11.0 | 14.0 | 0.00 | 0.69 | 0.00 | 80 | 1006.3 |
| 20260831090303 | 64 | 245 | 10.0 | 18.0 | 0.00 | 0.69 | 0.00 | 80 | 1006.3 |
| 20260831090107 | 64 | 257 | 11.0 | 18.0 | 0.00 | 0.16 | 0.00 | 80 | 1006.3 |
| 20260831084611 | 64 | 249 | 11.0 | 15.0 | 0.00 | 0.16 | 0.00 | 81 | 1006.2 |
| 20260831084304 | 64 | 257 | 13.0 | 14.0 | 0.00 | 0.69 | 0.00 | 81 | 1006.2 |
| 20260831083805 | 64 | 236 | 10.0 | 14.0 | 0.00 | 0.69 | 0.00 | 82 | 1006.2 |
| 20260831083304 | 64 | 246 | 10.0 | 14.0 | 0.00 | 0.69 | 0.00 | 82 | 1006.2 |
| 20260831083108 | 63 | 262 | 11.0 | 14.0 | 0.00 | 0.16 | 0.00 | 81 | 1006.1 |
| 20260831081804 | 64 | 257 | 10.0 | 12.0 | 0.00 | 0.69 | 0.00 | 81 | 1006.0 |
| 20260831081608 | 63 | 249 | 10.0 | 13.0 | 0.00 | 0.16 | 0.00 | 81 | 1006.0 |
| 20260831080804 | 64 | 260 | 10.0 | 13.0 | 0.00 | 0.69 | 0.00 | 81 | 1006.1 |
| 20260831080304 | 63 | 270 | 10.0 | 14.0 | 0.00 | 0.69 | 0.00 | 81 | 1006.1 |
| 20260831080109 | 63 | 269 | 11.0 | 14.0 | 0.00 | 0.16 | 0.00 | 81 | 1006.0 |
| 20260831074804 | 63 | 267 | 10.0 | 15.0 | 0.00 | 0.69 | 0.00 | 81 | 1006.1 |
| 20260831074608 | 63 | 249 | 11.0 | 14.0 | 0.00 | 0.16 | 0.00 | 81 | 1005.9 |
| 20260831074304 | 63 | 261 | 13.0 | 14.0 | 0.00 | 0.69 | 0.00 | 81 | 1006.1 |
| 20260831073804 | 63 | 263 | 10.0 | 13.0 | 0.00 | 0.69 | 0.00 | 81 | 1006.1 |
| 20260831073304 | 63 | 265 | 11.0 | 16.0 | 0.00 | 0.69 | 0.00 | 82 | 1006.1 |
| 20260831073112 | 62 | 270 | 11.0 | 16.0 | 0.00 | 0.16 | 0.00 | 81 | 1006.1 |
| 20260831071604 | 62 | 268 | 11.0 | 13.0 | 0.00 | 0.16 | 0.00 | 82 | 1006.0 |
| 20260831070804 | 62 | 262 | 10.0 | 13.0 | 0.00 | 0.69 | 0.00 | 82 | 1006.1 |
| 20260831070304 | 62 | 265 | 12.0 | 15.0 | 0.00 | 0.69 | 0.00 | 82 | 1006.1 |
| 20260831070115 | 62 | 278 | 11.0 | 14.0 | 0.00 | 0.16 | 0.00 | 82 | 1006.1 |
| 20260831064803 | 62 | 265 | 10.0 | 13.0 | 0.00 | 0.69 | 0.00 | 83 | 1006.0 |
| 20260831064604 | 62 | 262 | 10.0 | 13.0 | 0.00 | 0.16 | 0.00 | 82 | 1006.0 |
| 20260831064304 | 62 | 261 | 9.0 | 13.0 | 0.00 | 0.69 | 0.00 | 83 | 1006.1 |
| 20260831063803 | 62 | 259 | 10.0 | 13.0 | 0.00 | 0.69 | 0.00 | 83 | 1006.1 |
| 20260831063304 | 62 | 270 | 10.0 | 15.0 | 0.00 | 0.69 | 0.00 | 83 | 1006.1 |
| 20260831063102 | 62 | 274 | 10.0 | 15.0 | 0.00 | 0.16 | 0.00 | 82 | 1006.1 |
| 20260831061605 | 61 | 268 | 11.0 | 17.0 | 0.00 | 0.16 | 0.00 | 82 | 1006.1 |
| 20260831061304 | 62 | 268 | 13.0 | 16.0 | 0.00 | 0.69 | 0.00 | 82 | 1006.3 |
| 20260831060804 | 62 | 261 | 13.0 | 17.0 | 0.00 | 0.69 | 0.00 | 82 | 1006.3 |
| 20260831060304 | 62 | 270 | 14.0 | 17.0 | 0.00 | 0.69 | 0.00 | 82 | 1006.1 |
| 20260831060110 | 61 | 259 | 14.0 | 17.0 | 0.00 | 0.16 | 0.00 | 81 | 1006.0 |
| 20260831054605 | 61 | 260 | 14.0 | 18.0 | 0.00 | 0.16 | 0.00 | 81 | 1006.1 |
| 20260831054303 | 61 | 271 | 14.0 | 18.0 | 0.00 | 0.69 | 0.00 | 82 | 1006.1 |
| 20260831053803 | 61 | 270 | 13.0 | 20.0 | 0.00 | 0.69 | 0.00 | 82 | 1006.1 |
| 20260831053304 | 61 | 264 | 14.0 | 20.0 | 0.00 | 0.69 | 0.00 | 82 | 1006.2 |
| 20260831053104 | 61 | 259 | 15.0 | 18.0 | 0.00 | 0.16 | 0.00 | 81 | 1006.1 |
| 20260831051605 | 61 | 254 | 16.0 | 18.0 | 0.00 | 0.16 | 0.00 | 82 | 1006.2 |
| 20260831050804 | 61 | 266 | 14.0 | 18.0 | 0.00 | 0.69 | 0.00 | 82 | 1006.1 |
| 20260831050110 | 61 | 261 | 14.0 | 19.0 | 0.00 | 0.16 | 0.00 | 82 | 1006.1 |
| 20260831044804 | 61 | 267 | 13.0 | 18.0 | 0.00 | 0.69 | 0.00 | 82 | 1006.0 |
| 20260831044612 | 60 | 265 | 14.0 | 19.0 | 0.00 | 0.16 | 0.00 | 81 | 1006.0 |
| 20260831043803 | 61 | 267 | 16.0 | 20.0 | 0.00 | 0.69 | 0.00 | 82 | 1006.1 |
| 20260831043304 | 61 | 270 | 17.0 | 21.0 | 0.00 | 0.69 | 0.00 | 82 | 1005.9 |
| 20260831043109 | 61 | 266 | 13.0 | 19.0 | 0.00 | 0.16 | 0.00 | 81 | 1005.8 |
| 20260831041605 | 60 | 281 | 16.0 | 21.0 | 0.00 | 0.16 | 0.00 | 81 | 1006.0 |
| 20260831041304 | 61 | 269 | 16.0 | 21.0 | 0.00 | 0.69 | 0.00 | 82 | 1006.0 |
| 20260831040804 | 61 | 264 | 17.0 | 20.0 | 0.00 | 0.69 | 0.00 | 82 | 1006.0 |
| 20260831040106 | 60 | 262 | 15.0 | 22.0 | 0.00 | 0.16 | 0.00 | 81 | 1005.9 |
| 20260831034804 | 61 | 269 | 18.0 | 20.0 | 0.00 | 0.69 | 0.00 | 81 | 1006.0 |
| 20260831034608 | 61 | 266 | 15.0 | 20.0 | 0.00 | 0.16 | 0.00 | 81 | 1005.9 |
| 20260831034304 | 61 | 267 | 17.0 | 20.0 | 0.00 | 0.69 | 0.00 | 81 | 1005.9 |
| 20260831033804 | 61 | 260 | 16.0 | 20.0 | 0.00 | 0.69 | 0.00 | 81 | 1005.9 |
| 20260831033305 | 61 | 264 | 17.0 | 21.0 | 0.00 | 0.69 | 0.00 | 81 | 1005.9 |
| 20260831033104 | 60 | 262 | 16.0 | 21.0 | 0.00 | 0.16 | 0.00 | 81 | 1005.9 |
| 20260831031804 | 61 | 262 | 17.0 | 20.0 | 0.00 | 0.69 | 0.00 | 82 | 1006.0 |
| 20260831031606 | 60 | 260 | 14.0 | 20.0 | 0.00 | 0.16 | 0.00 | 81 | 1005.9 |
| 20260831031304 | 61 | 261 | 16.0 | 20.0 | 0.00 | 0.69 | 0.00 | 82 | 1006.0 |
| 20260831030804 | 61 | 266 | 15.0 | 20.0 | 0.00 | 0.69 | 0.00 | 82 | 1005.9 |
| 20260831030304 | 61 | 264 | 16.0 | 20.0 | 0.00 | 0.69 | 0.00 | 82 | 1006.0 |
| 20260831030110 | 61 | 266 | 16.0 | 20.0 | 0.00 | 0.16 | 0.00 | 81 | 1006.0 |
| 20260831024804 | 61 | 263 | 18.0 | 22.0 | 0.00 | 0.69 | 0.00 | 81 | 1006.0 |
| 20260831024618 | 61 | 266 | 19.0 | 23.0 | 0.00 | 0.16 | 0.00 | 81 | 1005.9 |
| 20260831024304 | 61 | 260 | 19.0 | 23.0 | 0.00 | 0.69 | 0.00 | 81 | 1006.0 |
| 20260831023105 | 61 | 265 | 16.0 | 22.0 | 0.00 | 0.16 | 0.00 | 80 | 1006.0 |
| 20260831021804 | 61 | 269 | 16.0 | 20.0 | 0.00 | 0.69 | 0.00 | 79 | 1005.9 |
| 20260831021605 | 61 | 286 | 14.0 | 18.0 | 0.00 | 0.16 | 0.00 | 79 | 1005.9 |
| 20260831021304 | 61 | 286 | 16.0 | 18.0 | 0.00 | 0.69 | 0.00 | 79 | 1005.9 |
| 20260831020803 | 61 | 282 | 13.0 | 17.0 | 0.00 | 0.69 | 0.00 | 79 | 1006.0 |
| 20260831020304 | 61 | 275 | 14.0 | 23.0 | 0.00 | 0.69 | 0.00 | 79 | 1006.1 |
| 20260831020111 | 61 | 290 | 16.0 | 23.0 | 0.00 | 0.16 | 0.00 | 78 | 1005.9 |
| 20260831014626 | 61 | 310 | 16.0 | 22.0 | 0.00 | 0.16 | 0.00 | 79 | 1005.9 |
| 20260831014303 | 61 | 292 | 17.0 | 20.0 | 0.00 | 0.69 | 0.00 | 80 | 1006.0 |
| 20260831013803 | 61 | 287 | 14.0 | 20.0 | 0.00 | 0.69 | 0.00 | 80 | 1005.9 |
| 20260831013304 | 61 | 297 | 17.0 | 24.0 | 0.00 | 0.69 | 0.00 | 80 | 1005.9 |
| 20260831013106 | 60 | 293 | 18.0 | 24.0 | 0.00 | 0.16 | 0.00 | 79 | 1005.9 |
| 20260831011804 | 61 | 275 | 16.0 | 20.0 | 0.00 | 0.69 | 0.00 | 81 | 1006.0 |
| 20260831011616 | 60 | 291 | 14.0 | 22.0 | 0.00 | 0.16 | 0.00 | 80 | 1005.9 |
| 20260831011304 | 61 | 287 | 16.0 | 20.0 | 0.00 | 0.69 | 0.00 | 81 | 1006.0 |
| 20260831010804 | 61 | 293 | 18.0 | 21.0 | 0.00 | 0.69 | 0.00 | 81 | 1006.0 |
| 20260831010304 | 61 | 287 | 18.0 | 23.0 | 0.00 | 0.69 | 0.00 | 81 | 1006.0 |
| 20260831010108 | 61 | 314 | 14.0 | 22.0 | 0.00 | 0.16 | 0.00 | 80 | 1006.0 |
| 20260831004805 | 61 | 269 | 16.0 | 22.0 | 0.00 | 0.69 | 0.00 | 82 | 1006.0 |
| 20260831004609 | 61 | 268 | 16.0 | 22.0 | 0.00 | 0.16 | 0.00 | 81 | 1006.0 |
| 20260831004304 | 61 | 270 | 13.0 | 17.0 | 0.00 | 0.69 | 0.00 | 82 | 1006.2 |
| 20260831003804 | 61 | 282 | 14.0 | 18.0 | 0.00 | 0.69 | 0.00 | 82 | 1006.1 |
| 20260831003304 | 61 | 276 | 13.0 | 20.0 | 0.00 | 0.69 | 0.00 | 82 | 1006.2 |
| 20260831003106 | 61 | 261 | 13.0 | 19.0 | 0.00 | 0.16 | 0.00 | 81 | 1006.0 |
| 20260831001804 | 62 | 283 | 13.0 | 18.0 | 0.00 | 0.69 | 0.00 | 82 | 1006.1 |
| 20260831001607 | 61 | 295 | 15.0 | 19.0 | 0.00 | 0.16 | 0.00 | 81 | 1006.1 |
| 20260831001304 | 61 | 289 | 14.0 | 20.0 | 0.00 | 0.69 | 0.00 | 81 | 1006.1 |
| 20260831000804 | 61 | 293 | 13.0 | 20.0 | 0.00 | 0.69 | 0.00 | 82 | 1006.2 |
| 20260831000304 | 61 | 295 | 13.0 | 20.0 | 0.00 | 0.69 | 0.00 | 82 | 1006.1 |
| 20260831000108 | 61 | 314 | 12.0 | 20.0 | 0.00 | 0.16 | 0.00 | 81 | 1006.0 |
| 20260830234803 | 61 | 298 | 13.0 | 20.0 | 0.00 | 0.69 | 0.00 | 81 | 1006.1 |
| 20260830234606 | 61 | 331 | 14.0 | 22.0 | 0.00 | 0.16 | 0.00 | 81 | 1005.9 |
| 20260830234304 | 61 | 295 | 13.0 | 21.0 | 0.00 | 0.69 | 0.00 | 81 | 1006.1 |
| 20260830233804 | 61 | 289 | 17.0 | 22.0 | 0.00 | 0.69 | 0.00 | 81 | 1006.1 |
| 20260830233305 | 61 | 293 | 18.0 | 22.0 | 0.00 | 0.69 | 0.00 | 81 | 1006.0 |
| 20260830233108 | 61 | 295 | 17.0 | 22.0 | 0.00 | 0.16 | 0.00 | 81 | 1006.0 |
| 20260830231803 | 61 | 293 | 18.0 | 24.0 | 0.00 | 0.69 | 0.00 | 81 | 1006.1 |
| 20260830231610 | 61 | 305 | 18.0 | 26.0 | 0.00 | 0.16 | 0.00 | 81 | 1006.0 |
| 20260830230804 | 61 | 280 | 16.0 | 24.0 | 0.00 | 0.69 | 0.00 | 81 | 1006.0 |
| 20260830230116 | 61 | 270 | 14.0 | 19.0 | 0.00 | 0.16 | 0.00 | 81 | 1005.9 |
| 20260830224804 | 62 | 276 | 14.0 | 20.0 | 0.00 | 0.69 | 0.00 | 82 | 1005.9 |
| 20260830224636 | 61 | 275 | 15.0 | 21.0 | 0.00 | 0.16 | 0.00 | 81 | 1005.8 |
| 20260830224304 | 62 | 281 | 16.0 | 21.0 | 0.00 | 0.69 | 0.00 | 82 | 1005.9 |
| 20260830223803 | 62 | 280 | 14.0 | 21.0 | 0.00 | 0.69 | 0.00 | 82 | 1005.9 |
| 20260830223304 | 62 | 281 | 14.0 | 22.0 | 0.00 | 0.69 | 0.00 | 82 | 1006.0 |
| 20260830223106 | 61 | 295 | 17.0 | 21.0 | 0.00 | 0.16 | 0.00 | 81 | 1005.9 |
| 20260830221804 | 62 | 289 | 16.0 | 22.0 | 0.00 | 0.69 | 0.00 | 82 | 1006.0 |
| 20260830221618 | 62 | 279 | 16.0 | 24.0 | 0.00 | 0.16 | 0.00 | 81 | 1005.9 |
| 20260830221303 | 62 | 279 | 17.0 | 24.0 | 0.00 | 0.69 | 0.00 | 82 | 1006.0 |
| 20260830220839 | 62 | 287 | 20.0 | 24.0 | 0.00 | 0.69 | 0.00 | 81 | 1005.9 |